Temperature
19 19 19 19 20 20 20 20 20 20 20 20 20 20 19 19 19 19 19 19 19 19 19 18 18 18 18 18 18 18 18 18 18 18 17 17 17 17 17 17 17 17 17
20 19 19 20 20 20 20 20 20 20 20 20 20 19 19 19 19 19 19 19 19 19 19 19 18 18 18 18 18 18 18 18 18 18 17 17 17 17 17 17 17 17 17
20 20 19 20 20 20 20 20 20 20 20 20 20 19 19 19 19 19 19 19 19 19 19 19 19 18 18 18 18 18 18 18 17 17 17 17 17 17 17 17 17 17 17
20 20 20 20 20 20 20 20 20 20 20 20 19 19 19 19 19 19 19 19 19 19 19 19 18 18 18 18 18 18 18 18 17 17 17 17 17 17 17 17 17 17 17
20 20 20 20 20 20 20 20 20 20 20 19 19 19 19 19 19 19 19 19 19 19 19 18 18 18 18 18 18 18 17 17 17 17 17 17 17 17 17 17 17 17 17
20 20 20 20 20 20 20 20 20 20 19 19 19 19 19 19 19 19 19 19 19 19 18 18 18 18 18 18 17 17 17 17 17 17 17 17 17 17 17 17 17 17 17
20 20 20 20 20 20 20 20 20 19 19 19 19 19 19 19 19 19 19 19 19 19 18 18 18 18 18 17 17 17 17 17 17 17 17 17 17 17 17 17 17 17 17
20 20 20 20 20 20 20 20 19 19 19 19 19 19 19 19 19 19 19 19 18 18 18 18 18 18 18 17 17 17 17 17 17 17 17 17 17 17 17 17 17 17 17
20 20 19 19 19 19 19 19 19 19 19 19 19 19 19 19 19 18 18 18 18 18 18 18 18 18 18 17 17 17 17 17 17 17 17 17 17 17 17 17 17 17 17
20 19 19 19 19 19 19 19 19 19 19 19 19 19 19 19 18 18 18 18 18 18 18 18 18 18 18 17 17 17 17 17 17 17 17 17 17 17 17 17 17 17 17
19 19 19 19 19 19 19 19 19 19 19 19 19 19 18 18 18 18 18 18 18 18 18 18 18 18 18 18 17 17 17 17 17 17 17 17 17 17 17 17 17 17 17
19 19 19 19 19 19 19 19 19 19 19 19 18 18 18 18 18 18 18 18 18 18 18 18 18 18 18 18 17 17 17 17 17 17 17 17 17 17 17 17 17 17 17
19 19 19 19 19 19 19 19 19 19 18 18 18 18 18 18 18 18 17 17 17 17 17 17 17 17 17 17 17 17 17 17 17 17 17 17 17 17 17 17 17 17 17
19 19 19 19 19 19 19 19 19 18 18 18 18 18 18 18 18 17 17 17 17 17 17 17 17 17 17 17 17 17 17 17 17 17 17 17 17 17 17 17 17 17 17
19 19 19 19 19 18 19 18 18 18 18 18 18 18 18 17 17 17 17 17 17 17 17 17 17 17 17 17 17 17 17 17 17 17 17 17 17 17 17 17 17 17 17
19 19 19 19 18 18 18 18 18 18 18 18 18 17 17 17 17 17 17 17 17 17 16 16 16 17 17 17 17 17 17 17 17 17 17 17 17 17 17 17 17 17 17
19 19 19 19 18 18 18 18 18 18 18 18 17 17 17 17 17 17 17 16 16 16 16 16 16 16 16 16 16 16 16 16 17 17 17 17 17 17 17 17 17 17 17
19 18 19 19 18 18 18 18 18 18 18 18 17 17 17 17 17 17 16 16 16 16 16 16 16 16 16 16 16 16 16 16 16 16 16 16 16 16 16 16 17 16 16
18 18 18 18 18 18 18 18 18 17 17 17 17 17 17 17 16 16 16 16 16 16 16 16 16 15 15 15 16 16 16 16 16 16 16 16 16 16 16 16 16 16 16
18 18 18 18 18 18 18 17 17 17 17 17 17 17 16 16 16 16 16 16 16 15 15 15 15 15 15 15 15 15 15 15 16 16 16 16 16 16 16 16 16 16 16
18 18 18 18 18 18 17 17 17 17 17 17 17 17 16 16 16 16 16 15 15 15 15 15 15 15 15 15 15 15 15 15 15 15 15 15 16 16 16 16 16 16 16
18 18 18 18 18 18 18 17 17 17 17 17 17 16 16 16 16 15 15 15 15 15 15 15 14 14 14 14 14 14 14 15 15 15 15 15 15 15 15 15 16 16 16
18 18 18 18 18 18 17 17 17 17 17 17 16 16 16 16 15 15 15 15 15 14 14 14 14 14 14 14 14 14 14 14 14 14 14 15 15 15 15 15 15 15 16
18 18 18 18 18 18 17 17 17 17 17 17 16 16 16 15 15 15 15 14 14 14 14 14 14 14 14 13 13 13 13 13 13 13 14 14 14 14 14 15 15 15 15
18 18 18 18 18 17 17 17 17 17 17 16 16 16 15 15 15 15 14 14 14 14 14 13 13 13 13 13 13 13 13 13 13 13 13 13 14 14 14 14 14 14 15
18 18 18 18 18 17 17 17 17 17 16 16 16 15 15 15 15 14 14 14 14 13 13 13 13 13 13 13 12 12 12 12 12 12 12 12 13 13 13 14 14 14 14
Wind_Speed
9 13 20 20 20 21 21 21 21 21 21 20 20 19 18 17 16 15 13 12 12 11 11 10 10 11 11 11 11 12 12 12 13 13 13 14 14 15 17 17 17 16 18
14 18 21 21 21 21 21 21 20 20 20 19 18 18 17 16 15 14 13 12 12 11 11 10 10 11 11 11 12 12 12 12 13 13 13 13 14 15 16 16 16 15 17
17 18 21 21 21 21 21 20 20 19 19 18 17 17 16 15 14 13 12 12 11 11 11 11 10 11 11 11 12 12 12 12 12 13 12 11 13 15 15 16 16 17 17
16 17 19 21 21 21 20 20 19 18 18 17 16 15 15 14 13 12 12 11 11 11 11 10 10 11 11 11 11 11 11 12 12 12 10 10 11 14 15 15 16 16 16
14 16 20 22 21 20 20 19 18 18 17 16 15 14 14 13 12 11 11 10 10 10 10 10 10 10 10 10 10 10 11 11 10 9 8 9 10 14 15 15 15 15 15
11 15 19 21 21 20 19 18 17 17 16 15 14 13 12 12 11 11 10 10 9 9 9 9 9 9 9 9 9 8 9 9 9 8 8 9 10 13 14 14 15 15 15
11 13 18 21 20 19 18 18 17 16 15 14 13 12 11 11 10 9 9 9 9 8 8 8 8 8 8 8 7 7 7 8 9 8 8 8 10 13 13 14 14 14 14
12 11 16 20 20 19 18 17 16 15 14 13 12 11 11 10 9 9 8 8 7 7 7 7 7 6 6 6 6 6 6 7 8 8 7 8 10 13 13 13 13 14 14
10 9 10 15 17 18 17 16 15 14 13 13 12 11 10 10 9 8 7 7 6 6 6 6 6 5 5 4 4 4 5 7 7 7 7 8 11 13 13 13 13 13 13
8 8 8 10 12 13 14 15 14 14 13 12 11 10 9 9 8 7 7 6 6 6 5 5 5 4 4 3 2 2 3 5 5 6 6 8 11 13 13 13 13 13 13
9 7 7 7 9 10 11 13 13 13 12 11 10 10 8 6 5 5 6 6 6 6 5 4 4 4 3 2 1 1 2 3 4 5 6 9 12 13 14 14 14 14 14
11 9 7 7 7 8 9 9 9 9 9 8 7 7 6 5 4 4 5 6 5 5 4 4 3 3 2 0 1 1 1 1 2 4 6 9 12 14 15 15 15 14 14
10 10 8 7 7 6 5 7 6 6 6 6 6 5 5 4 2 2 2 2 2 3 3 2 2 1 1 1 0 0 1 1 2 3 5 9 12 14 15 16 16 16 15
8 8 8 7 6 5 5 5 6 5 5 5 5 5 5 3 2 1 1 2 2 2 2 2 1 1 0 0 0 1 1 2 2 3 5 8 10 14 16 17 17 17 17
8 7 7 6 6 5 4 4 5 5 5 5 5 5 6 4 2 2 1 1 1 1 1 1 1 0 1 1 0 0 1 2 2 3 4 7 9 12 15 16 17 17 18
7 7 7 6 5 4 3 3 4 5 5 5 5 5 6 5 3 2 1 1 1 1 1 2 1 1 1 1 1 1 2 2 3 4 4 6 8 11 14 16 16 17 18
6 6 6 6 5 4 4 4 4 5 5 4 4 5 6 5 5 3 2 1 1 2 2 2 2 2 1 1 1 1 2 3 4 5 5 6 7 10 13 14 15 17 18
6 6 5 6 6 5 4 3 4 5 5 4 4 4 5 6 6 4 2 1 1 2 3 2 2 1 1 1 1 2 2 3 4 5 5 5 5 7 11 13 15 16 18
6 7 6 6 6 6 5 3 3 4 4 4 4 4 4 5 6 5 3 2 2 2 2 1 1 1 0 1 2 2 2 3 3 4 4 5 5 6 8 10 13 16 17
5 6 7 6 5 5 4 4 3 3 2 3 3 4 4 5 6 5 3 3 3 2 1 1 1 1 0 1 2 2 2 3 2 2 3 3 4 5 6 8 9 11 15
7 6 7 7 5 5 4 3 4 3 2 2 2 3 4 4 5 5 3 3 2 2 2 2 2 1 1 1 1 2 3 2 2 2 2 2 3 4 4 6 7 9 10
8 8 7 7 7 6 4 3 3 4 3 2 2 2 2 3 4 4 4 2 2 2 2 2 2 1 1 1 1 1 2 4 3 3 2 2 3 3 4 4 5 7 9
8 9 8 7 7 6 5 4 4 4 3 2 1 1 1 2 3 4 4 3 3 3 2 2 2 3 1 0 1 2 1 2 3 3 2 3 4 3 3 4 5 5 6
9 8 7 7 7 6 6 6 6 4 3 3 2 1 1 2 2 3 4 4 3 2 2 1 2 2 2 1 0 0 1 2 1 2 3 3 4 3 4 4 5 5 5
8 8 7 7 6 6 6 7 7 5 3 3 2 2 2 2 2 3 4 4 3 2 2 2 2 2 2 2 1 1 1 1 1 2 3 4 3 3 4 4 4 5 5
7 7 7 8 6 6 7 7 8 8 6 5 3 3 1 1 1 2 3 3 3 2 2 2 2 2 2 2 2 2 2 2 2 2 3 3 3 3 4 3 3 4 5
Wind_Direction
149 155 149 143 136 129 125 124 123 123 123 124 125 128 129 129 129 129 128 126 123 120 116 111 108 107 107 106 106 107 109 112 113 115 116 115 116 116 116 114 113 114 115
145 154 151 146 140 134 131 129 127 127 127 127 128 130 131 131 130 129 128 126 125 121 117 113 111 111 110 110 110 111 113 116 117 119 119 119 120 119 118 118 118 121 120
142 151 151 147 142 138 135 134 132 131 131 131 132 133 133 133 131 130 128 127 125 122 118 116 114 112 112 113 113 113 115 116 118 118 115 115 121 123 123 123 123 124 124
142 148 150 149 145 142 139 138 137 136 136 136 137 138 137 136 134 134 132 130 127 125 122 119 117 114 114 114 115 115 116 115 115 113 111 118 125 130 128 126 126 126 125
140 146 153 151 148 146 144 143 142 142 141 142 143 142 141 140 140 139 137 134 130 127 125 122 119 117 116 116 116 118 120 121 120 115 113 116 125 134 132 131 129 128 127
137 147 155 153 152 150 149 148 148 148 147 147 148 147 147 146 145 144 142 139 134 131 128 125 123 120 118 117 116 117 119 124 123 124 120 124 133 139 138 137 135 133 132
139 147 157 156 156 154 153 153 153 153 152 153 154 154 153 152 152 151 149 144 141 138 135 132 128 124 121 119 115 110 113 122 129 133 135 139 144 145 144 142 140 139 138
144 148 159 160 158 157 157 157 157 158 158 159 160 161 162 161 162 163 158 156 154 150 146 142 137 131 125 119 113 103 101 113 134 144 149 155 157 153 151 149 146 146 145
139 140 149 158 160 160 160 160 161 162 163 165 167 168 170 170 170 173 174 172 165 161 156 153 150 145 138 129 119 104 98 108 132 150 161 167 169 165 161 159 155 153 152
136 138 136 145 151 155 160 163 164 166 167 169 171 174 177 177 179 184 184 186 180 177 174 172 171 164 156 144 133 113 101 106 133 156 165 177 179 176 173 171 168 164 162
153 142 131 129 137 146 154 165 168 169 171 173 176 179 178 177 181 189 197 201 198 196 198 197 197 189 175 161 145 108 98 108 142 163 178 190 190 187 184 181 179 177 174
161 157 144 136 138 144 157 158 158 160 164 167 169 172 163 163 181 199 217 221 214 212 221 223 222 208 180 122 4 55 98 148 164 189 203 204 201 198 194 189 187 187 185
161 161 156 147 143 144 141 144 142 142 150 157 164 161 156 161 181 203 219 234 224 221 237 246 239 228 194 182 309 287 239 240 223 220 222 219 213 207 203 199 195 194 193
150 154 153 149 145 151 146 149 148 146 155 161 174 173 166 168 178 194 210 245 225 213 217 237 233 237 196 135 183 245 241 241 245 238 240 233 224 216 210 207 204 202 200
151 152 150 145 147 149 147 155 158 162 169 173 182 190 179 168 169 157 141 135 177 181 183 194 200 180 109 90 118 205 262 263 261 252 252 247 234 225 216 211 210 209 207
152 152 147 145 150 149 150 151 157 165 169 170 180 189 176 169 162 151 144 122 107 153 181 180 171 143 114 105 49 317 288 285 278 271 267 259 238 231 225 219 218 217 215
150 147 146 145 139 149 159 166 164 166 159 154 162 167 164 165 159 148 137 127 133 128 125 110 92 92 91 68 349 307 293 283 277 275 273 264 250 239 234 233 231 226 222
146 152 157 151 146 155 157 157 158 158 152 146 151 156 163 162 153 139 130 126 121 113 111 108 97 92 50 28 310 297 297 294 279 275 274 267 255 245 242 240 238 236 231
161 157 147 134 147 148 142 136 135 135 132 140 147 155 163 158 151 140 135 132 121 107 98 107 91 112 101 302 283 280 297 292 286 284 279 276 269 260 253 251 247 245 242
158 150 136 129 140 133 119 105 100 98 98 118 138 155 158 155 154 144 137 133 129 115 106 102 99 84 85 299 304 314 312 306 303 296 296 295 288 277 265 257 254 256 253
151 148 146 150 159 143 137 139 137 137 129 117 137 150 153 153 152 147 135 128 131 132 146 147 132 96 26 7 23 343 331 336 340 335 333 325 320 307 285 263 253 253 256
158 161 160 166 164 162 157 150 138 129 120 109 91 96 122 150 156 156 150 148 147 133 119 123 127 120 52 57 111 66 349 343 347 1 354 356 342 341 326 303 281 264 258
165 170 169 166 160 156 147 126 104 84 73 75 69 63 46 119 153 153 155 150 146 144 147 153 147 147 158 60 93 145 155 249 309 327 345 354 346 348 341 333 325 300 273
176 168 161 161 156 153 153 148 146 148 154 170 153 130 75 82 123 143 143 139 136 135 141 152 141 145 147 170 171 37 186 175 201 311 321 330 337 339 337 334 332 322 305
169 165 160 154 155 155 153 151 144 140 143 130 114 112 89 49 80 126 137 135 134 133 137 132 130 139 153 169 181 172 134 91 175 210 288 318 326 314 315 311 312 319 323
162 160 159 160 162 156 152 150 151 151 149 142 141 140 123 62 45 90 126 135 142 144 151 158 154 154 167 171 178 182 179 182 196 196 239 277 298 299 305 302 298 307 312
Height
1520 1524 1528 1530 1533 1535 1537 1539 1540 1542 1543 1545 1546 1547 1548 1549 1550 1551 1552 1552 1553 1553 1554 1554 1555 1555 1555 1556 1556 1557 1557 1558 1558 1559 1560 1561 1562 1563 1564 1565 1566 1567 1568
1518 1524 1528 1531 1534 1536 1538 1540 1542 1543 1545 1546 1548 1549 1550 1551 1552 1553 1553 1554 1555 1555 1556 1556 1556 1557 1557 1557 1558 1558 1559 1560 1560 1561 1562 1563 1564 1565 1566 1567 1568 1569 1571
1519 1524 1528 1532 1535 1537 1540 1542 1543 1545 1546 1548 1549 1551 1552 1553 1554 1554 1555 1556 1556 1557 1557 1558 1558 1558 1559 1559 1560 1560 1561 1561 1562 1563 1564 1565 1566 1567 1568 1569 1570 1572 1573
1521 1525 1529 1533 1536 1539 1541 1543 1545 1546 1548 1549 1551 1552 1553 1554 1555 1556 1557 1557 1558 1558 1559 1559 1560 1560 1561 1561 1562 1562 1563 1564 1564 1565 1566 1567 1568 1569 1570 1571 1573 1574 1575
1522 1526 1530 1534 1537 1540 1542 1544 1546 1547 1549 1551 1552 1553 1554 1555 1557 1558 1558 1559 1560 1560 1561 1561 1561 1562 1563 1563 1564 1565 1565 1566 1567 1567 1568 1569 1570 1571 1572 1573 1575 1576 1577
1523 1527 1531 1535 1538 1541 1543 1545 1547 1549 1550 1552 1554 1555 1556 1557 1558 1559 1560 1560 1561 1562 1562 1563 1563 1564 1564 1565 1566 1567 1567 1568 1569 1569 1570 1571 1572 1573 1574 1575 1577 1578 1579
1524 1528 1532 1535 1539 1541 1544 1546 1548 1550 1551 1553 1555 1556 1557 1558 1559 1560 1561 1562 1562 1563 1564 1564 1565 1566 1566 1567 1568 1569 1569 1570 1570 1571 1572 1573 1574 1575 1576 1577 1578 1579 1581
1525 1529 1532 1536 1539 1542 1545 1547 1549 1551 1552 1554 1555 1557 1558 1559 1560 1561 1562 1563 1564 1564 1565 1566 1566 1567 1568 1569 1569 1570 1571 1571 1572 1573 1573 1574 1575 1576 1577 1578 1580 1581 1582
1526 1529 1533 1537 1540 1543 1545 1547 1549 1551 1553 1555 1556 1558 1559 1560 1561 1562 1563 1564 1565 1565 1566 1567 1567 1568 1569 1570 1571 1571 1572 1573 1573 1574 1575 1575 1576 1577 1578 1580 1581 1582 1583
1526 1530 1533 1536 1540 1542 1545 1547 1550 1552 1553 1555 1557 1558 1560 1561 1562 1563 1564 1565 1566 1566 1567 1568 1568 1569 1570 1571 1571 1572 1573 1574 1574 1575 1576 1576 1577 1578 1579 1581 1582 1583 1584
1525 1529 1533 1536 1539 1543 1545 1548 1550 1552 1554 1555 1557 1559 1560 1561 1562 1563 1564 1565 1566 1567 1568 1568 1569 1570 1570 1571 1572 1572 1573 1574 1575 1575 1576 1577 1578 1578 1580 1581 1582 1584 1585
1524 1528 1532 1536 1539 1543 1545 1548 1550 1552 1554 1556 1557 1559 1560 1561 1562 1564 1564 1565 1566 1567 1568 1568 1569 1569 1570 1571 1572 1572 1573 1574 1575 1575 1576 1577 1578 1579 1580 1581 1582 1584 1585
1523 1528 1532 1536 1540 1543 1545 1548 1550 1552 1554 1556 1557 1559 1560 1561 1562 1563 1564 1565 1566 1566 1567 1568 1568 1569 1570 1570 1571 1572 1573 1574 1574 1575 1576 1577 1577 1578 1579 1580 1582 1583 1585
1524 1528 1532 1536 1539 1542 1546 1548 1550 1552 1554 1556 1557 1559 1560 1561 1562 1563 1564 1565 1565 1565 1566 1567 1568 1568 1569 1570 1570 1571 1572 1573 1574 1574 1575 1576 1576 1577 1578 1579 1581 1582 1584
1524 1528 1531 1535 1539 1542 1545 1548 1550 1552 1554 1556 1557 1559 1560 1561 1561 1562 1563 1563 1564 1564 1565 1566 1567 1568 1568 1569 1569 1570 1571 1571 1572 1573 1573 1574 1575 1576 1577 1578 1579 1581 1582
1524 1528 1531 1535 1539 1542 1545 1548 1550 1552 1554 1555 1557 1558 1559 1560 1561 1561 1562 1562 1562 1563 1564 1565 1565 1566 1567 1567 1568 1568 1569 1569 1570 1570 1571 1572 1573 1574 1575 1576 1577 1579 1580
1524 1528 1532 1536 1539 1542 1545 1548 1550 1552 1553 1555 1556 1557 1558 1559 1560 1560 1561 1561 1561 1562 1562 1563 1564 1564 1565 1566 1566 1566 1567 1567 1567 1568 1568 1569 1570 1571 1572 1574 1575 1576 1578
1524 1528 1532 1535 1538 1542 1544 1547 1549 1552 1553 1554 1555 1557 1558 1558 1559 1559 1560 1560 1560 1561 1561 1562 1562 1563 1563 1564 1564 1564 1564 1564 1565 1565 1565 1566 1567 1568 1569 1571 1572 1573 1575
1525 1528 1531 1535 1538 1541 1544 1547 1549 1551 1552 1553 1555 1556 1557 1557 1558 1558 1559 1559 1559 1560 1560 1560 1561 1561 1561 1562 1562 1562 1562 1562 1562 1562 1562 1563 1563 1565 1566 1567 1568 1570 1571
1525 1528 1531 1534 1537 1540 1543 1546 1548 1550 1552 1553 1554 1555 1556 1556 1557 1557 1558 1558 1559 1559 1559 1559 1559 1560 1560 1560 1560 1560 1560 1559 1559 1559 1559 1560 1560 1561 1562 1563 1564 1566 1568
1525 1528 1531 1534 1537 1540 1542 1544 1547 1549 1551 1552 1553 1554 1555 1556 1556 1557 1557 1557 1557 1558 1558 1558 1558 1558 1558 1558 1558 1558 1558 1557 1557 1557 1557 1557 1558 1558 1559 1559 1560 1562 1563
1525 1528 1531 1534 1537 1540 1542 1545 1547 1548 1550 1551 1552 1553 1554 1555 1555 1556 1556 1556 1556 1556 1556 1556 1557 1556 1556 1556 1556 1556 1556 1556 1555 1555 1555 1556 1556 1556 1556 1557 1557 1558 1559
1524 1528 1531 1534 1537 1539 1542 1545 1546 1548 1549 1550 1551 1552 1553 1554 1554 1555 1555 1555 1555 1555 1555 1555 1555 1555 1555 1555 1555 1555 1555 1554 1554 1554 1554 1554 1554 1554 1554 1554 1554 1555 1555
1524 1528 1531 1534 1537 1539 1541 1544 1545 1546 1548 1549 1550 1551 1552 1552 1553 1553 1553 1553 1553 1553 1553 1553 1553 1553 1553 1553 1553 1553 1553 1553 1553 1552 1552 1552 1552 1552 1552 1552 1552 1552 1552
1524 1527 1530 1533 1536 1538 1540 1542 1544 1545 1546 1547 1548 1549 1550 1550 1551 1551 1551 1551 1551 1551 1551 1551 1551 1551 1551 1551 1551 1551 1550 1550 1550 1550 1549 1549 1549 1550 1549 1549 1549 1549 1549
1523 1527 1529 1532 1535 1537 1539 1541 1542 1543 1544 1546 1546 1547 1548 1548 1549 1549 1549 1549 1549 1549 1549 1549 1549 1549 1548 1548 1548 1548 1548 1548 1548 1548 1547 1546 1546 1546 1546 1546 1546 1546 1546